Weather observations for the past three days for
Seward
Metric (Imperial)
Date Time (akdt) Wind (kph) Vis. (km) Weather Sky Cond. Temperature (ºC) Relative Humidity Wind Chill (°C) Heat Index (°C) Pressure Precipitation (cm)
Air Dwpt 6 hour altimeter (cm) sea level (mb) 1 hr 3 hr 6 hr
Max. Min.
16 03:53 Calm 16.09 Overcast OVC007 9.4 7.8 10 7.8 90% 76.58 1020.8
16 02:53 Calm 16.09 Overcast OVC007 9.4 8.3 93% 76.58 1020.8
16 01:53 Calm 16.09 Overcast OVC009 10 8.3 89% 76.58 1020.8
16 00:53 Calm 14.48 Overcast OVC011 8.9 7.8 93% 76.56 1020.7
15 23:53 Calm 14.48 Mostly Cloudy BKN013 7.8 6.7 93% 76.56 1020.6
15 22:53 Calm 16.09 Fair CLR 9.4 7.8 90% 76.5 1020.0
15 21:53 S 6 16.09 Fair CLR 10 8.3 13.9 10 89% 76.5 1020.0
15 20:53 S 11 16.09 Fair CLR 10.6 8.3 86% 76.5 1019.9
15 19:53 S 6 16.09 Fair CLR 11.7 8.3 80% 76.48 1019.6
15 18:53 S 9 16.09 A Few Clouds FEW014 12.2 8.9 80% 76.5 1019.9
15 17:53 S 6 16.09 Light Rain FEW039 SCT050 OVC110 11.1 9.4 89% 76.5 1019.9
15 16:53 SE 9 16.09 Partly Cloudy SCT075 12.2 8.3 77% 76.48 1019.7
15 15:53 S 15 16.09 Fair CLR 13.9 8.3 14.4 12.2 69% 76.43 1019.1
15 14:53 S 13 16.09 Fair CLR 13.9 8.9 72% 76.4 1018.7
15 13:53 S 15 16.09 Fair CLR 13.9 8.9 72% 76.4 1018.5
15 12:53 S 15 16.09 Fair CLR 13.9 8.9 72% 76.38 1018.4
15 11:53 S 13 16.09 Fair CLR 13.9 8.3 69% 76.38 1018.1
15 10:53 S 11 16.09 Fair CLR 12.8 8.3 74% 76.35 1018.0
15 09:53 S 9 16.09 Fair CLR 12.2 7.8 13.9 10.6 75% 76.38 1018.1
15 07:53 Calm 16.09 Fair CLR 12.2 6.1 67% 76.35 1017.9
15 06:53 N 15 16.09 Fair CLR 13.3 6.1 62% 76.33 1017.4
15 05:53 N 20 16.09 Fair CLR 12.8 5.6 62% 76.28 1017.0
15 04:53 N 22 G 33 16.09 Fair CLR 12.8 5.6 62% 76.28 1016.9
15 03:53 N 22 16.09 Fair CLR 13.3 5.6 19.4 12.8 60% 76.25 1016.7
15 02:53 Calm 16.09 Fair CLR 13.3 5.6 60% 76.25 1016.5
15 01:53 N 20 16.09 Fair CLR 14.4 5.6 56% 76.23 1016.2
15 00:53 N 15 16.09 Fair CLR 16.1 5.6 50% 76.23 1016.1
14 23:53 NE 15 16.09 Fair CLR 17.8 5.6 45% 76.17 1015.7
14 22:53 N 17 16.09 Fair CLR 18.3 5.6 43% 76.17 1015.4
14 21:53 N 11 16.09 Fair CLR 19.4 5.6 23.3 19.4 41% 76.15 1015.1
14 20:53 NW 19 G 35 16.09 Fair CLR 21.1 5 35% 76.12 1014.9
14 19:53 NW 19 16.09 Fair CLR 22.2 5 33% 76.12 1014.7
14 18:53 NW 17 G 33 16.09 Fair CLR 22.8 5.6 33% 76.12 1014.8
14 17:53 NW 20 G 35 16.09 Fair CLR 22.8 5.6 33% 76.12 1014.9
14 16:53 NW 19 G 33 16.09 Fair CLR 22.8 5.6 33% 76.15 1015.2
14 15:53 NW 17 G 35 16.09 Fair CLR 22.8 5.6 22.8 17.2 33% 76.17 1015.4
14 14:53 NW 15 G 44 16.09 Fair CLR 22.2 5.6 34% 76.17 1015.7
14 13:53 NW 30 G 43 16.09 Fair CLR 21.1 5 35% 76.2 1015.9
14 12:53 NW 28 G 44 16.09 Fair CLR 20 5 38% 76.2 1016.0
14 11:53 NW 33 G 52 16.09 Fair and Breezy CLR 18.9 4.4 39% 76.23 1016.3
14 10:53 N 22 G 46 16.09 Fair CLR 18.3 4.4 40% 76.28 1016.7
14 09:53 N 19 G 35 16.09 Fair CLR 16.7 4.4 16.7 9.4 44% 76.3 1017.3
14 08:53 N 30 G 50 16.09 Fair CLR 14.4 3.3 48% 76.33 1017.7
14 07:53 N 30 G 48 16.09 Fair CLR 13.3 2.8 49% 76.35 1018.0
14 06:53 N 31 G 56 16.09 Fair CLR 12.2 1.7 49% 76.4 1018.4
14 05:53 N 28 G 44 16.09 Fair CLR 10.6 2.2 56% 76.38 1018.4
14 04:53 N 26 G 41 16.09 Fair CLR 10 2.2 59% 7 76.4 1018.7
14 03:53 N 24 G 46 16.09 Fair CLR 11.1 2.2 13.3 10.6 55% 76.43 1018.8
14 02:53 N 26 G 43 16.09 Fair CLR 11.1 2.2 55% 76.43 1018.9
14 01:53 NE 20 G 43 16.09 Fair CLR 12.2 1.7 49% 76.43 1019.1
14 00:53 N 13 16.09 Fair CLR 11.1 2.2 55% 76.45 1019.3
13 23:53 N 15 16.09 Fair CLR 12.2 2.2 51% 76.48 1019.5
13 22:53 N 13 16.09 Fair CLR 12.2 2.2 51% 76.48 1019.6
13 21:53 N 13 G 35 16.09 Fair CLR 13.3 1.7 16.1 12.8 46% 76.48 1019.5
13 20:53 NW 19 16.09 Fair CLR 14.4 1.7 42% 76.48 1019.7
13 19:53 NW 15 G 28 16.09 Fair CLR 15.6 2.2 41% 76.5 1019.9
13 17:53 S 15 16.09 Overcast OVC055 13.3 6.1 62% 76.56 1020.6
13 16:53 S 15 16.09 Overcast OVC060 13.9 5 55% 76.58 1020.8
13 15:53 S 13 16.09 Overcast OVC060 13.9 4.4 15 11.1 53% 76.61 1021.2
13 14:53 S 15 16.09 Overcast OVC060 13.3 5.6 60% 76.63 1021.5
13 13:53 S 9 16.09 Overcast OVC055 11.7 6.1 69% 76.66 1022.0
13 12:53 S 11 16.09 Overcast OVC055 11.7 5.6 66% 76.68 1022.3
13 11:53 NE 9 16.09 Overcast OVC050 13.9 3.3 49% 76.68 1022.4
13 10:53 Vrbl 11 16.09 A Few Clouds FEW060 13.9 3.9 51% 76.71 1022.6
13 09:53 N 19 G 30 16.09 Overcast OVC060 12.8 3.3 13.3 3.9 53% 76.73 1022.9
13 08:53 N 11 16.09 Overcast OVC060 10.6 3.3 61% 76.76 1023.2
13 07:53 N 13 16.09 Overcast OVC060 8.9 3.3 68% 7 76.76 1023.4
13 06:53 N 7 16.09 Overcast OVC060 7.2 3.3 77% 6 76.76 1023.5
13 05:53 Calm 16.09 Overcast OVC055 5.6 3.3 85% 76.78 1023.6
13 04:53 Calm 16.09 Overcast OVC060 4.4 3.3 93% 76.78 1023.6
Date Time (akdt) Wind (kph) Vis. (km) Weather Sky Cond. Air Dwpt Max. Min. Relative Humidity Wind Chill (°C) Heat Index (°C) altimeter (cm) sea level (mb) 1 hr 3 hr 6 hr
6 hour
Temperature (ºC) Pressure Precipitation (cm)